Location: Hiram
(41.3130°N, 81.1440°W)
Time: 07:55:33
(UTC-04:00)

Amateur Radio Satellites - All Passes

Search period start: 28 September 2016 07:25
Search period end: 29 September 2016 07:25
Location: Hiram, 41.3130°N, 81.1440°W

Satellite Date Start Highest point End Downlink Frequencies (MHz)
Time Altitude Azimuth
NOAA 15 28 Sep 07:29:10 07:34:27 63° 102° (ESE) 07:39:40 137.62
PCSat 28 Sep 07:32:29 07:34:36 12° 323° (NW) 07:36:43 145.827
Cubesat XI-IV 28 Sep 07:46:04 07:51:26 73° 103° (ESE) 07:56:47 437.490
CUTE-I 28 Sep 07:46:08 07:51:30 74° 103° (ESE) 07:56:52 437.470
GONETS M04 28 Sep 07:49:51 07:55:22 19° 77° (ENE) 08:00:53
AO-7 28 Sep 07:51:49 07:56:08 15° 314° (NW) 08:00:28 29.400- 29.500
CINEMA 3 28 Sep 08:01:00 08:03:05 13° 92° (E) 08:05:11 145.822/145.860
GOMX 1 28 Sep 08:06:48 08:11:05 50° 287° (WNW) 08:15:09 467.674
HORYU 2 28 Sep 08:08:34 08:10:45 13° 298° (WNW) 08:12:54 437.375
CUTE 1.7 + AOD 2 28 Sep 08:13:35 08:15:49 14° 91° (E) 08:18:02 437.475
CANX-2 28 Sep 08:14:26 08:17:12 17° 92° (E) 08:19:57 2200.000
BRITE-PL 28 Sep 08:19:46 08:23:03 18° 297° (WNW) 08:26:10 437.365/2234.400
DOVE 4 28 Sep 08:26:43 08:30:54 74° 285° (WNW) 08:35:02 437.250
NOAA 18 28 Sep 08:29:24 08:34:47 61° 288° (WNW) 08:40:10 137.9125
HO-68 28 Sep 08:38:45 08:45:12 35° 97° (E) 08:51:36 435.675
DANDE 28 Sep 08:44:19 08:51:55 40° 272° (W) 08:59:01 436.750
LilacSat-2 28 Sep 08:49:30 08:51:55 16° 293° (WNW) 08:54:20 437.200
O/OREOS (USA 219) 28 Sep 08:55:35 08:59:37 30° 300° (WNW) 09:03:42 437.305
CUSAT 1 28 Sep 08:57:16 09:00:05 12° 285° (WNW) 09:02:44 437.405
STRAND 1 28 Sep 09:02:18 09:06:10 22° 267° (W) 09:10:03 437.568
CUBEBUG 2 28 Sep 09:05:47 09:08:56 20° 94° (E) 09:12:08 437.445
PRISM 28 Sep 09:08:13 09:12:15 50° 72° (ENE) 09:16:19 437.425
NOAA 15 28 Sep 09:10:12 09:13:41 18° 299° (WNW) 09:17:10 137.62
Cosmos 2499 28 Sep 09:17:48 09:24:44 56° 92° (E) 09:31:35 435.465 / 435.565
COMPASS 1 28 Sep 09:19:36 09:23:30 35° 97° (E) 09:27:21 437.405
UWE-3 28 Sep 09:23:12 09:26:26 20° 94° (E) 09:29:43 435.000/436.395/437.385
BEESAT 3 28 Sep 09:24:21 09:27:19 20° 46° (NE) 09:30:16 437.485
Cubesat XI-IV 28 Sep 09:27:44 09:30:52 16° 300° (WNW) 09:34:01 437.490
CUTE-I 28 Sep 09:27:49 09:30:55 16° 300° (WNW) 09:34:01 437.470
CINEMA 3 28 Sep 09:36:29 09:40:30 49° 287° (WNW) 09:44:36 145.822/145.860
GONETS M04 28 Sep 09:42:03 09:50:54 88° 275° (W) 09:59:50
UNISAT 6 28 Sep 09:42:17 09:44:45 15° 64° (ENE) 09:47:13 437.425
CUTE 1.7 + AOD 2 28 Sep 09:47:45 09:51:57 51° 287° (WNW) 09:56:06 437.475
SEEDS 28 Sep 09:48:31 09:52:47 72° 284° (WNW) 09:57:01 437.485
Oscar 11 28 Sep 09:49:09 09:52:40 23° 94° (E) 09:56:09 145.826/435.025
CANX-2 28 Sep 09:49:10 09:53:15 42° 288° (WNW) 09:57:18 2200.000
ZACube-1 28 Sep 09:51:32 09:55:11 26° 95° (E) 09:58:53 437.345
AAUSAT CUBESAT 2 28 Sep 10:10:08 10:14:22 77° 283° (WNW) 10:18:31 437.432
ANTELSAT 28 Sep 10:16:03 10:19:53 33° 70° (ENE) 10:23:44 437.575/2403.000
BEESAT 2 28 Sep 10:20:06 10:23:48 34° 50° (NE) 10:27:28 435.950
HO-68 28 Sep 10:26:17 10:32:59 45° 295° (WNW) 10:39:41 435.675
TIGRISAT 28 Sep 10:36:08 10:40:16 53° 73° (ENE) 10:44:25 435.000
CUBEBUG 2 28 Sep 10:41:44 10:45:38 36° 289° (WNW) 10:49:40 437.445
FUNcube-1 28 Sep 10:44:55 10:49:15 86° 287° (WNW) 10:53:41 145.935
PRISM 28 Sep 10:45:44 10:47:50 14° 268° (W) 10:49:56 437.425
QB50P1 28 Sep 10:52:37 10:54:04 12° 62° (ENE) 10:55:30 145.935-145.965
COMPASS 1 28 Sep 10:55:44 10:58:48 20° 293° (WNW) 11:01:53 437.405
UWE-3 28 Sep 10:59:02 11:02:58 35° 289° (WNW) 11:07:00 435.000/436.395/437.385
BEESAT 3 28 Sep 11:01:23 11:05:09 42° 243° (WSW) 11:08:54 437.485
JAS-2 28 Sep 11:01:48 11:06:40 22° 57° (ENE) 11:11:53 435.910
POPSAT HIP 1 28 Sep 11:05:00 11:07:30 16° 65° (ENE) 11:10:00 437.405
Cosmos 2499 28 Sep 11:12:33 11:18:14 25° 291° (WNW) 11:23:55 435.465 / 435.565
UNISAT 6 28 Sep 11:16:56 11:21:05 48° 260° (W) 11:25:13 437.425
NANOSAT C BR1 28 Sep 11:20:13 11:23:25 22° 67° (ENE) 11:26:37 145.865
Oscar 11 28 Sep 11:24:57 11:28:48 31° 290° (WNW) 11:32:37 145.826/435.025
DELFI C3 28 Sep 11:26:57 11:30:56 67° 285° (WNW) 11:34:54 145.870
ZACube-1 28 Sep 11:27:44 11:31:25 28° 290° (WNW) 11:35:10 437.345
QB50P2 28 Sep 11:43:08 11:47:07 43° 72° (ENE) 11:51:07 145.880/145.840
GONETS M04 28 Sep 11:43:10 11:49:03 19° 298° (WNW) 11:55:00
HUMSAT D 28 Sep 11:43:54 11:48:11 89° 129° (SE) 11:52:28 437.325/437.525
PHONESAT 2.4 28 Sep 11:45:04 11:47:47 35° 161° (SSE) 11:50:31 2401.200-2431.200
POLYITAN 1 28 Sep 11:45:22 11:49:20 43° 72° (ENE) 11:53:19 437.675
ANTELSAT 28 Sep 11:53:32 11:56:41 20° 266° (W) 11:59:52 437.575/2403.000
BEESAT 2 28 Sep 11:58:18 12:01:26 22° 248° (WSW) 12:04:32 435.950
TIGRISAT 28 Sep 12:15:22 12:17:17 13° 269° (W) 12:19:12 435.000
DUCHIFAT 1 28 Sep 12:22:26 12:26:37 82° 260° (W) 12:30:48 145.980
BUGSAT 1 28 Sep 12:23:13 12:27:03 39° 72° (ENE) 12:30:52 437.445
QB50P1 28 Sep 12:25:06 12:29:17 66° 258° (WSW) 12:33:28 145.935-145.965
VELOX 1 28 Sep 12:29:27 12:32:40 20° 94° (E) 12:35:51 145.980
ESTCUBE 1 28 Sep 12:31:21 12:35:41 43° 98° (E) 12:40:00 437.505/2401.250
CUBEBUG 1 28 Sep 12:32:02 12:35:45 27° 96° (E) 12:39:25 437.445
POPSAT HIP 1 28 Sep 12:38:52 12:42:54 46° 261° (W) 12:46:58 437.405
JAS-2 28 Sep 12:44:18 12:50:45 77° 258° (WSW) 12:58:06 435.910
AIST 2 28 Sep 12:46:09 12:50:10 42° 52° (NE) 12:54:10 435.215
50 SAT 28 Sep 12:48:14 12:51:26 28° 97° (E) 12:54:36 437.505
PCSat 28 Sep 12:50:04 12:53:54 19° 44° (NE) 12:57:43 145.827
Oscar 19 28 Sep 12:52:10 12:56:00 21° 63° (ENE) 12:59:49 437.125/150
NANOSAT C BR1 28 Sep 12:55:12 12:58:57 31° 263° (W) 13:02:43 145.865
M-CUBED/EXP-1 PRIME 28 Sep 12:59:06 13:01:05 15° 99° (E) 13:03:05 437.505
SPROUT 28 Sep 13:10:27 13:14:13 30° 96° (E) 13:17:58 437.525
QB50P2 28 Sep 13:20:35 13:23:08 16° 268° (W) 13:25:41 145.880/145.840
PHONESAT 2.4 28 Sep 13:20:49 13:23:45 76° 176° (S) 13:26:42 2401.200-2431.200
AISAT 28 Sep 13:21:19 13:25:43 78° 103° (ESE) 13:30:05 437.250
POLYITAN 1 28 Sep 13:22:49 13:25:20 15° 268° (W) 13:27:52 437.675
UKube-1 28 Sep 13:25:28 13:29:30 37° 99° (E) 13:33:28 .
YUBILEINY 28 Sep 13:34:23 13:41:29 27° 67° (ENE) 13:48:32 435.215
Cosmos 2491 28 Sep 13:37:06 13:39:00 11° 72° (ENE) 13:40:54 435.465 / 435.565
Gurwin Techsat 1B 28 Sep 13:53:01 13:57:50 36° 68° (ENE) 14:02:39 435.225
AUBIESAT-1 28 Sep 13:54:33 13:57:51 71° 108° (ESE) 14:01:10 437.475
DX 1 28 Sep 13:54:56 13:59:17 77° 286° (WNW) 14:03:36 434.975-435.025
BUGSAT 1 28 Sep 14:00:02 14:02:35 16° 267° (W) 14:05:08 437.445
VELOX 1 28 Sep 14:05:10 14:09:14 37° 290° (WNW) 14:13:16 145.980
Cosmos 2504 28 Sep 14:08:15 14:12:05 14° 62° (ENE) 14:16:00 435.465 / 435.565
CUBEBUG 1 28 Sep 14:08:20 14:11:57 26° 292° (WNW) 14:15:32 437.445
ESTCUBE 1 28 Sep 14:08:59 14:12:10 19° 295° (WNW) 14:15:20 437.505/2401.250
50 SAT 28 Sep 14:22:09 14:24:44 18° 292° (WNW) 14:27:18 437.505
AIST 2 28 Sep 14:25:23 14:28:20 19° 249° (WSW) 14:31:17 435.215
TISAT 1 28 Sep 14:28:37 14:32:36 43° 99° (E) 14:36:34 437.305
Oscar 19 28 Sep 14:29:54 14:34:55 50° 260° (W) 14:40:00 437.125/150
PCSat 28 Sep 14:32:28 14:37:54 76° 243° (WSW) 14:43:18 145.827
M-CUBED/EXP-1 PRIME 28 Sep 14:32:55 14:35:42 26° 295° (WNW) 14:38:28 437.505
JAS-2 28 Sep 14:34:46 14:37:09 12° 278° (W) 14:39:37 435.910
SPROUT 28 Sep 14:46:38 14:50:00 23° 292° (WNW) 14:53:21 437.525
PHONESAT 2.4 28 Sep 14:56:54 14:59:46 50° 194° (SSW) 15:02:39 2401.200-2431.200
AISAT 28 Sep 15:00:26 15:01:32 11° 300° (WNW) 15:02:38 437.250
UKube-1 28 Sep 15:02:09 15:05:16 20° 295° (WNW) 15:08:22 .
AO-7 28 Sep 15:03:43 15:11:15 40° 60° (ENE) 15:18:47 29.400- 29.500
ITUPSAT 1 28 Sep 15:04:05 15:07:39 20° 93° (E) 15:11:13 437.325
SWISSCUBE 28 Sep 15:16:20 15:20:35 31° 97° (E) 15:24:48 437.505
ITAMSAT 1 28 Sep 15:24:07 15:29:15 71° 73° (ENE) 15:34:25 435.822/435.867
Cosmos 2491 28 Sep 15:25:18 15:33:56 65° 92° (E) 15:42:38 435.465 / 435.565
BEESAT 28 Sep 15:29:06 15:33:33 37° 98° (E) 15:37:58 436.000
YUBILEINY 28 Sep 15:30:23 15:38:58 67° 268° (W) 15:47:32 435.215
Gurwin Techsat 1B 28 Sep 15:33:15 15:37:48 29° 265° (W) 15:42:23 435.225
SO-50 28 Sep 15:46:06 15:50:53 64° 119° (ESE) 15:55:38 436.795
Cosmos 2504 28 Sep 15:59:07 16:06:36 81° 82° (E) 16:14:35 435.465 / 435.565
TISAT 1 28 Sep 16:05:16 16:07:54 16° 295° (WNW) 16:10:31 437.305
PHONESAT 2.4 28 Sep 16:33:45 16:35:29 15° 209° (SSW) 16:37:13 2401.200-2431.200
ITUPSAT 1 28 Sep 16:41:07 16:45:39 43° 290° (WNW) 16:50:11 437.325
MOZHAYETS 4 28 Sep 16:49:34 16:54:03 45° 99° (E) 16:58:29
SWISSCUBE 28 Sep 16:54:10 16:58:16 29° 293° (WNW) 17:02:22 437.505
AO-7 28 Sep 16:55:54 17:03:51 48° 259° (W) 17:11:50 29.400- 29.500
AIST 1 28 Sep 17:04:50 17:09:08 80° 83° (E) 17:13:23
ITAMSAT 1 28 Sep 17:06:40 17:09:13 14° 270° (W) 17:11:47 435.822/435.867
BEESAT 28 Sep 17:07:17 17:11:07 24° 294° (WNW) 17:14:56 436.000
KKS-1 28 Sep 17:10:05 17:14:20 44° 100° (E) 17:18:34 437.445
NOAA 15 28 Sep 17:12:48 17:15:27 14° 59° (ENE) 17:18:05 137.62
Cosmos 2491 28 Sep 17:24:08 17:31:25 28° 293° (WNW) 17:38:47 435.465 / 435.565
O/OREOS (USA 219) 28 Sep 17:25:41 17:30:12 52° 64° (ENE) 17:34:40 437.305
HORYU 2 28 Sep 17:28:05 17:32:24 58° 73° (ENE) 17:36:45 437.375
SO-50 28 Sep 17:28:14 17:31:47 20° 318° (NW) 17:35:18 436.795
CUTE-I 28 Sep 17:30:44 17:33:56 16° 60° (ENE) 17:37:10 437.470
Cubesat XI-IV 28 Sep 17:30:50 17:34:01 16° 60° (ENE) 17:37:13 437.490
YUBILEINY 28 Sep 17:31:43 17:33:57 11° 287° (WNW) 17:36:12 435.215
GOMX 1 28 Sep 17:37:17 17:41:08 21° 66° (ENE) 17:44:52 467.674
STARS 28 Sep 17:41:48 17:46:01 47° 100° (E) 17:50:13 437.465
BRITE-PL 28 Sep 17:49:31 17:55:05 58° 73° (ENE) 18:00:33 437.365/2234.400
Cosmos 2504 28 Sep 17:54:24 17:59:06 18° 279° (W) 18:03:58 435.465 / 435.565
DOVE 4 28 Sep 17:56:58 17:59:05 13° 63° (ENE) 18:01:10 437.250
LilacSat-2 28 Sep 17:57:04 17:59:43 18° 68° (ENE) 18:02:22 437.200
CUBESAT XI-V 28 Sep 18:11:15 18:15:45 43° 98° (E) 18:20:09 437.345
NOAA 18 28 Sep 18:15:59 18:20:51 35° 67° (ENE) 18:25:45 137.9125
MOZHAYETS 4 28 Sep 18:27:36 18:30:51 19° 295° (WNW) 18:34:08
CUSAT 1 28 Sep 18:32:19 18:36:49 20° 80° (E) 18:41:53 437.405
KKS-1 28 Sep 18:47:36 18:50:33 18° 296° (WNW) 18:53:31 437.445
NOAA 15 28 Sep 18:49:10 18:54:29 83° 256° (WSW) 18:59:50 137.62
CINEMA 3 28 Sep 19:03:08 19:05:25 14° 65° (ENE) 19:07:40 145.822/145.860
O/OREOS (USA 219) 28 Sep 19:06:28 19:09:08 15° 261° (W) 19:11:46 437.305
HORYU 2 28 Sep 19:07:21 19:09:19 13° 269° (W) 19:11:18 437.375
CUTE 1.7 + AOD 2 28 Sep 19:08:00 19:08:53 11° 62° (ENE) 19:09:47 437.475
HO-68 28 Sep 19:08:04 19:13:52 28° 60° (ENE) 19:19:40 435.675
CUTE-I 28 Sep 19:08:07 19:13:23 69° 258° (WSW) 19:18:42 437.470
Cubesat XI-IV 28 Sep 19:08:12 19:13:30 70° 258° (WSW) 19:18:49 437.490
CANX-2 28 Sep 19:08:23 19:10:13 13° 63° (ENE) 19:12:04 2200.000
Cosmos 2499 28 Sep 19:08:23 19:13:39 20° 66° (ENE) 19:19:09 435.465 / 435.565
GOMX 1 28 Sep 19:13:34 19:18:50 53° 260° (W) 19:23:55 467.674
STARS 28 Sep 19:19:13 19:22:00 17° 296° (WNW) 19:24:46 437.465
BRITE-PL 28 Sep 19:29:43 19:33:50 20° 269° (W) 19:37:55 437.365/2234.400
LilacSat-2 28 Sep 19:30:30 19:33:49 29° 264° (W) 19:37:08 437.200
DOVE 4 28 Sep 19:31:12 19:36:14 77° 258° (WSW) 19:41:00 437.250
STRAND 1 28 Sep 19:33:43 19:36:38 15° 91° (E) 19:39:32 437.568
RS-15 28 Sep 19:34:50 19:45:04 39° 106° (ESE) 19:55:43 29.354- 29.394
CUBESAT XI-V 28 Sep 19:49:23 19:52:47 20° 295° (WNW) 19:56:11 437.345
GONETS M04 28 Sep 19:52:38 20:01:04 47° 74° (ENE) 20:09:22
NOAA 18 28 Sep 19:56:40 20:01:29 32° 263° (W) 20:06:20 137.9125
CUBEBUG 2 28 Sep 20:04:46 20:07:23 16° 66° (ENE) 20:09:59 437.445
DANDE 28 Sep 20:09:11 20:14:03 42° 89° (E) 20:20:23 436.750
COMPASS 1 28 Sep 20:10:33 20:13:55 24° 68° (ENE) 20:17:19 437.405
CUSAT 1 28 Sep 20:11:26 20:17:43 75° 281° (W) 20:25:26 437.405
UWE-3 28 Sep 20:21:08 20:23:42 16° 65° (ENE) 20:26:16 435.000/436.395/437.385
CINEMA 3 28 Sep 20:37:45 20:42:09 56° 260° (W) 20:46:24 145.822/145.860
SEEDS 28 Sep 20:39:44 20:43:56 76° 75° (ENE) 20:48:10 437.485
CUTE 1.7 + AOD 2 28 Sep 20:39:52 20:44:06 74° 259° (W) 20:48:22 437.475
ISS 28 Sep 20:41:13 20:44:22 53° 141° (SE) 20:47:34 145.825
CANX-2 28 Sep 20:41:22 20:45:32 61° 259° (W) 20:49:47 2200.000
Oscar 11 28 Sep 20:44:24 20:47:25 19° 66° (ENE) 20:50:26 145.826/435.025
ZACube-1 28 Sep 20:48:02 20:51:02 20° 67° (ENE) 20:54:04 437.345
HO-68 28 Sep 20:54:02 21:01:06 61° 258° (WSW) 21:08:12 435.675
AAUSAT CUBESAT 2 28 Sep 20:59:52 21:03:59 68° 75° (ENE) 21:08:09 437.432
Cosmos 2499 28 Sep 20:59:57 21:07:33 81° 264° (W) 21:15:45 435.465 / 435.565
STRAND 1 28 Sep 21:11:08 21:16:14 65° 287° (WNW) 21:21:20 437.568
AO-85 28 Sep 21:26:38 21:31:47 61° 119° (ESE) 21:36:38 145.980
CUBEBUG 2 28 Sep 21:39:42 21:43:41 42° 261° (W) 21:47:38 437.445
FUNcube-1 28 Sep 21:40:18 21:44:24 71° 76° (ENE) 21:48:32 145.935
RS-15 28 Sep 21:45:14 21:56:49 66° 309° (NW) 22:09:03 29.354- 29.394
COMPASS 1 28 Sep 21:45:45 21:49:21 28° 264° (W) 21:52:59 437.405
GONETS M04 28 Sep 21:49:47 21:57:41 39° 274° (W) 22:05:29
DANDE 28 Sep 21:52:23 21:57:06 29° 295° (WNW) 22:03:00 436.750
UWE-3 28 Sep 21:55:53 21:59:50 42° 261° (W) 22:03:47 435.000/436.395/437.385
CUSAT 1 28 Sep 21:57:34 22:01:21 15° 304° (NW) 22:05:26 437.405
DELFI C3 28 Sep 22:12:12 22:16:10 68° 75° (ENE) 22:20:10 145.870
ISS 28 Sep 22:18:17 22:21:03 25° 338° (NNW) 22:23:49 145.825
Oscar 11 28 Sep 22:19:13 22:23:15 39° 262° (W) 22:27:20 145.826/435.025
ZACube-1 28 Sep 22:23:22 22:27:07 33° 263° (W) 22:30:53 437.345
PRISM 28 Sep 22:24:40 22:28:50 82° 105° (ESE) 22:32:56 437.425
TIGRISAT 28 Sep 22:29:34 22:30:53 11° 90° (E) 22:32:12 435.000
HUMSAT D 28 Sep 22:34:55 22:38:55 59° 74° (ENE) 22:42:59 437.325/437.525
SO-50 28 Sep 22:39:53 22:40:41 10° 33° (NNE) 22:41:29 436.795
Cosmos 2499 28 Sep 22:56:00 22:59:32 14° 282° (WNW) 23:03:09 435.465 / 435.565
UNISAT 6 28 Sep 23:08:14 23:12:14 32° 97° (E) 23:16:17 437.425
AO-85 28 Sep 23:08:39 23:12:34 22° 315° (NW) 23:16:19 145.980
50 SAT 28 Sep 23:26:09 23:27:59 13° 65° (ENE) 23:29:49 437.505
VELOX 1 28 Sep 23:27:00 23:30:07 19° 65° (ENE) 23:33:14 145.980
CUBEBUG 1 28 Sep 23:28:04 23:31:37 24° 67° (ENE) 23:35:10 437.445
ESTCUBE 1 28 Sep 23:30:42 23:34:55 40° 71° (ENE) 23:39:10 437.505/2401.250
ANTELSAT 28 Sep 23:43:17 23:47:43 78° 103° (ESE) 23:52:14 437.575/2403.000
M-CUBED/EXP-1 PRIME 28 Sep 23:44:38 23:48:02 26° 65° (ENE) 23:51:15 437.505
JAS-2 28 Sep 23:55:05 00:00:29 20° 87° (E) 00:05:41 435.910
ISS 28 Sep 23:56:39 23:58:24 14° 358° (N) 00:00:09 145.825
RS-15 29 Sep 00:02:33 00:12:21 28° 339° (NNW) 00:22:27 29.354- 29.394
TIGRISAT 29 Sep 00:03:35 00:07:57 67° 286° (WNW) 00:12:26 435.000
SPROUT 29 Sep 00:04:11 00:07:36 24° 68° (ENE) 00:11:01 437.525
DUCHIFAT 1 29 Sep 00:07:39 00:10:10 15° 92° (E) 00:12:40 145.980
QB50P1 29 Sep 00:10:29 00:13:33 19° 94° (E) 00:16:35 145.935-145.965
HUMSAT D 29 Sep 00:14:00 00:14:56 11° 270° (W) 00:15:52 437.325/437.525
SO-50 29 Sep 00:17:41 00:22:13 56° 54° (NE) 00:26:36 436.795
AISAT 29 Sep 00:18:15 00:22:40 68° 74° (ENE) 00:27:06 437.250
UKube-1 29 Sep 00:19:55 00:23:47 32° 69° (ENE) 00:27:38 .
POPSAT HIP 1 29 Sep 00:23:43 00:27:17 26° 96° (E) 00:30:50 437.405
NANOSAT C BR1 29 Sep 00:39:02 00:42:57 37° 98° (E) 00:46:51 145.865
AUBIESAT-1 29 Sep 00:39:58 00:44:01 87° 251° (WSW) 00:47:48 437.475
UNISAT 6 29 Sep 00:45:16 00:48:48 24° 292° (WNW) 00:52:22 437.425
DX 1 29 Sep 00:50:01 00:54:23 89° 251° (WSW) 00:58:47 434.975-435.025
BEESAT 3 29 Sep 00:51:48 00:55:09 28° 114° (ESE) 00:58:33 437.485
50 SAT 29 Sep 00:57:41 01:01:07 40° 261° (W) 01:04:35 437.505
VELOX 1 29 Sep 01:02:03 01:06:16 42° 261° (W) 01:10:31 145.980
QB50P2 29 Sep 01:03:17 01:07:32 83° 103° (ESE) 01:11:45 145.880/145.840
CUBEBUG 1 29 Sep 01:03:48 01:07:45 31° 263° (W) 01:11:42 437.445
POLYITAN 1 29 Sep 01:05:29 01:09:43 83° 103° (ESE) 01:13:57 437.675
ESTCUBE 1 29 Sep 01:08:35 01:11:52 19° 267° (W) 01:15:10 437.505/2401.250
M-CUBED/EXP-1 PRIME 29 Sep 01:19:05 01:22:29 24° 258° (WSW) 01:25:42 437.505
TISAT 1 29 Sep 01:20:14 01:23:57 32° 70° (ENE) 01:27:41 437.305
ANTELSAT 29 Sep 01:22:39 01:23:49 11° 298° (WNW) 01:25:00 437.575/2403.000
ISS 29 Sep 01:33:18 01:35:50 20° 19° (NNE) 01:38:22 145.825
Cosmos 2491 29 Sep 01:36:02 01:43:45 32° 69° (ENE) 01:51:25 435.465 / 435.565
JAS-2 29 Sep 01:38:24 01:46:19 84° 286° (WNW) 01:53:48 435.910
SPROUT 29 Sep 01:39:41 01:43:24 29° 264° (W) 01:47:08 437.525
BUGSAT 1 29 Sep 01:39:47 01:43:48 70° 102° (ESE) 01:47:48 437.445
DUCHIFAT 1 29 Sep 01:42:05 01:46:03 43° 288° (WNW) 01:50:02 145.980
QB50P1 29 Sep 01:45:34 01:49:24 35° 289° (WNW) 01:53:14 145.935-145.965
BEESAT 2 29 Sep 01:48:58 01:52:50 61° 119° (ESE) 01:56:46 435.950
UKube-1 29 Sep 01:56:28 01:59:51 22° 265° (W) 02:03:15 .
AISAT 29 Sep 01:58:19 01:59:34 11° 270° (W) 02:00:50 437.250
SO-50 29 Sep 01:59:26 02:02:11 16° 251° (WSW) 02:04:54 436.795
POPSAT HIP 1 29 Sep 01:59:30 02:02:59 26° 292° (WNW) 02:06:28 437.405
Gurwin Techsat 1B 29 Sep 02:10:36 02:13:14 14° 90° (E) 02:15:51 435.225
ITUPSAT 1 29 Sep 02:10:52 02:14:41 25° 66° (ENE) 02:18:32 437.325
NANOSAT C BR1 29 Sep 02:15:27 02:18:24 19° 294° (WNW) 02:21:21 145.865
RS-15 29 Sep 02:20:58 02:30:36 25° 15° (NNE) 02:40:13 29.354- 29.394
SWISSCUBE 29 Sep 02:22:43 02:27:02 36° 69° (ENE) 02:31:22 437.505
BEESAT 3 29 Sep 02:29:27 02:32:46 26° 312° (NW) 02:36:08 437.485
BEESAT 29 Sep 02:35:23 02:39:51 43° 70° (ENE) 02:44:21 436.000
YUBILEINY 29 Sep 02:35:58 02:43:14 30° 83° (E) 02:50:28 435.215
Oscar 19 29 Sep 02:41:14 02:46:19 57° 101° (E) 02:51:21 437.125/150
TISAT 1 29 Sep 02:56:29 02:59:39 21° 266° (W) 03:02:49 437.305
ISS 29 Sep 03:09:22 03:12:40 86° 217° (SW) 03:15:57 145.825
BUGSAT 1 29 Sep 03:18:17 03:18:35 10° 298° (WNW) 03:18:54 437.445
JAS-2 29 Sep 03:25:00 03:30:08 19° 305° (NW) 03:35:09 435.910
BEESAT 2 29 Sep 03:28:36 03:31:02 15° 318° (NW) 03:33:28 435.950
Cosmos 2491 29 Sep 03:32:26 03:41:01 57° 270° (W) 03:49:32 435.465 / 435.565
PCSat 29 Sep 03:34:05 03:36:32 13° 103° (ESE) 03:38:59 145.827
ITAMSAT 1 29 Sep 03:37:28 03:41:43 25° 95° (E) 03:45:58 435.822/435.867
ITUPSAT 1 29 Sep 03:47:57 03:52:19 36° 262° (W) 03:56:43 437.325
Gurwin Techsat 1B 29 Sep 03:48:23 03:53:43 74° 286° (WNW) 03:59:00 435.225
MOZHAYETS 4 29 Sep 03:51:19 03:55:36 42° 71° (ENE) 03:59:57
SWISSCUBE 29 Sep 04:01:03 04:04:53 24° 265° (W) 04:08:45 437.505
KKS-1 29 Sep 04:07:58 04:12:08 41° 71° (ENE) 04:16:20 437.445
BEESAT 29 Sep 04:14:20 04:17:48 20° 267° (W) 04:21:18 436.000
AIST 2 29 Sep 04:21:25 04:25:31 89° 122° (ESE) 04:29:40 435.215
Oscar 19 29 Sep 04:21:41 04:25:10 19° 298° (WNW) 04:28:40 437.125/150
YUBILEINY 29 Sep 04:30:50 04:39:27 59° 282° (WNW) 04:48:06 435.215
RS-15 29 Sep 04:34:49 04:46:55 54° 46° (NE) 04:58:44 29.354- 29.394
Cosmos 2504 29 Sep 04:37:41 04:45:00 68° 94° (E) 04:52:07 435.465 / 435.565
STARS 29 Sep 04:38:15 04:42:23 42° 71° (ENE) 04:46:30 437.465
AO-7 29 Sep 04:56:51 05:05:03 59° 103° (ESE) 05:13:11 29.400- 29.500
CUSAT 1 29 Sep 05:05:55 05:10:44 18° 58° (ENE) 05:15:08 437.405
PCSat 29 Sep 05:13:45 05:19:10 82° 300° (WNW) 05:24:37 145.827
CUBESAT XI-V 29 Sep 05:14:17 05:18:42 42° 71° (ENE) 05:23:09 437.345
ITAMSAT 1 29 Sep 05:16:26 05:21:18 41° 291° (WNW) 05:26:10 435.822/435.867
HORYU 2 29 Sep 05:21:31 05:22:34 11° 90° (E) 05:23:37 437.375
MOZHAYETS 4 29 Sep 05:29:45 05:32:57 19° 268° (W) 05:36:11
Gurwin Techsat 1B 29 Sep 05:32:12 05:32:43 10° 304° (WNW) 05:33:13 435.225
AIST 1 29 Sep 05:33:49 05:38:00 46° 93° (E) 05:42:12
KKS-1 29 Sep 05:45:48 05:48:52 18° 267° (W) 05:51:57 437.445
BRITE-PL 29 Sep 05:56:30 05:59:22 16° 89° (E) 06:02:07 437.365/2234.400
AO-85 29 Sep 05:58:55 06:02:56 45° 52° (NE) 06:06:43 145.980
AIST 2 29 Sep 06:02:45 06:04:37 13° 321° (NW) 06:06:29 435.215
STARS 29 Sep 06:15:58 06:18:53 18° 267° (W) 06:21:51 437.465
Cosmos 2504 29 Sep 06:33:39 06:39:00 21° 293° (WNW) 06:44:17 435.465 / 435.565
YUBILEINY 29 Sep 06:36:17 06:38:28 11° 306° (NW) 06:40:38 435.215
NOAA 18 29 Sep 06:39:20 06:41:59 14° 90° (E) 06:44:37 137.9125
CUSAT 1 29 Sep 06:46:21 06:54:08 85° 80° (E) 07:00:28 437.405
DANDE 29 Sep 06:46:31 06:54:29 45° 72° (ENE) 07:01:52 436.750
RS-15 29 Sep 06:47:45 06:59:29 53° 250° (WSW) 07:10:54 29.354- 29.394
STRAND 1 29 Sep 06:49:20 06:53:15 23° 64° (ENE) 06:57:10 437.568
AO-7 29 Sep 06:50:16 06:57:22 33° 302° (WNW) 07:04:28 29.400- 29.500
CUBESAT XI-V 29 Sep 06:52:50 06:56:15 20° 267° (W) 06:59:42 437.345
HORYU 2 29 Sep 06:55:08 06:59:34 70° 286° (WNW) 07:04:01 437.375
PCSat 29 Sep 07:00:16 07:03:26 15° 320° (NW) 07:06:36 145.827
LilacSat-2 29 Sep 07:03:28 07:06:46 26° 96° (E) 07:10:02 437.200
NOAA 15 29 Sep 07:04:34 07:09:27 37° 98° (E) 07:14:18 137.62
AIST 1 29 Sep 07:13:16 07:15:52 15° 290° (WNW) 07:18:28
GOMX 1 29 Sep 07:15:59 07:20:10 43° 98° (E) 07:24:09 467.674
